Regional Weather Roundup
Issued by NWS Kansas City/Pleasant Hill, MO

Home | Current Version | Previous Version | Text Only | Print | Product List | Glossary On
Versions: 1 2 3 4 5 6 7 8 9 10 11 12 13 14 15 16 17 18 19 20 21 22 23 24 25 26 27 28 29 30 31 32 33 34 35 36 37 38 39 40 41 42 43 44 45 46 47 48 49 50
000
ASUS43 KEAX 230910
RWREAX

WEATHER ROUNDUP FOR EASTERN KANSAS AND NORTHWEST MISSOURI
NATIONAL WEATHER SERVICE KANSAS CITY/PLEASANT HILL MO
400 AM CDT THU OCT 23 2014

KSZ040-057-103>105-MOZ028-029-037-043-231000-
...KANSAS CITY METROPOLITAN AREA...

CITY           SKY/WX    TMP DP  RH WIND       PRES   REMARKS
K.C. INTL      LGT RAIN  57  56  96 NW5       30.12R
K.C. DOWNTOWN  CLOUDY    62  52  69 SW8       30.11F
LEES SUMMIT    CLOUDY    58  50  75 S7        30.12S
OLATHE - IXD   LGT RAIN  59  54  83 S6        30.12S
OLATHE - OJC   CLOUDY    58  54  86 S6        30.11S
LAWRENCE       LGT RAIN  59  57  93 CALM      30.11S FOG

$$

MOZ001>008-011>017-020>025-030>033-038>040-044>046-053-054-231000-
...NORTHERN AND CENTRAL MISSOURI...

CITY           SKY/WX    TMP DP  RH WIND       PRES   REMARKS
ST. JOSEPH     LGT RAIN  58  57  97 S10       30.10F FOG
MOSBY          CLOUDY    55  50  82 CALM      30.11F
WHITEMAN AFB   MOCLDY    55  48  78 S8        30.12F
CLINTON        CLOUDY    55  48  76 S3        30.14S
SEDALIA        MOCLDY    53  47  79 S9        30.14F
WARSAW         NOT AVBL
MARSHALL       CLOUDY    52  46  82 SE5       30.14S
CHILLICOTHE      N/A     55  45  68 S5        30.12F
MOBERLY        PTCLDY    50  41  71 S5        30.15F
KIRKSVILLE     MOCLDY    49  44  83 S8        30.14F

$$

MOZ041-047>049-056>058-063>065-088>090-097-231000-
...EASTERN AND SOUTHERN MISSOURI...

CITY           SKY/WX    TMP DP  RH WIND       PRES   REMARKS
ST. LOUIS INTL PTCLDY    43  38  82 SE6       30.20F
SPIRIT OF STL  CLEAR     37  36  96 CALM      30.20S
COLUMBIA       PTCLDY    45  41  86 SE7       30.16F
JEFFERSON CITY PTCLDY    43  39  86 SE5       30.18S
MEXICO         PTCLDY    46  46 100 S3        30.17S FOG
HANNIBAL       PTCLDY    46  39  76 S6        30.17R
ROLLA          CLEAR     44  39  82 SE9       30.17S
LEBANON        PTCLDY    48  43  81 S6        30.18S
OSAGE BEACH    PTCLDY    46  41  81 SE5       30.17S
SPRINGFIELD    CLOUDY    53  44  71 S10       30.15F
BRANSON        MOCLDY    46  45  93 E3        30.18S
NEVADA         CLOUDY    55  50  82 CALM      30.14F
JOPLIN         CLOUDY    58  51  78 S6        30.14R
WEST PLAINS    CLEAR     38  35  89 CALM      30.20S

$$

IAZ060-094-KSZ022-034>040-054-083-096-NEZ052-066-093-231000-
...KANSAS...SOUTHEAST NEBRASKA AND IOWA...

CITY           SKY/WX    TMP DP  RH WIND       PRES   REMARKS
TOPEKA         HVY RAIN  63  62  97 S3        30.11S FOG
MANHATTAN      CLOUDY    62  60  93 SE5       30.06F
EMPORIA        LGT RAIN  61  60  97 SE8       30.08F
CHANUTE        LGT RAIN  61  59  93 CALM      30.09F
WICHITA        CLOUDY    62  57  83 S6        30.08F
OMAHA          CLOUDY    63  59  87 S8        30.03S
LINCOLN        CLOUDY    59  57  93 S3        30.04F
FALLS CITY     CLOUDY    60  59  96 SE8       30.06S FOG
LAMONI         LGT RAIN  53  50  89 S6        30.08F
DES MOINES     CLOUDY    53  49  86 S8        30.07F

$$




USA.gov is the U.S. government's official web portal to all federal, state and local government web resources and services.